Wind_Speed
42 42 40 42 35 37 36 36 34 35 36 33 35 36 36 35 37 39 41 43 45 48 50 52 53 54 55 58 58 58 58 58 58 60 62 63 62 64 67 68 67 68 68
49 47 46 45 40 38 39 39 37 38 40 39 39 40 41 40 41 42 44 45 48 50 52 55 56 58 61 62 63 65 64 62 63 62 63 66 66 69 67 68 68 68 68
52 52 50 49 44 39 43 43 40 42 43 43 43 32 34 38 41 43 46 48 50 51 53 56 58 63 64 65 67 67 66 67 70 71 69 68 67 66 68 68 68 68 68
56 55 54 51 48 46 44 45 45 46 44 47 42 37 43 43 44 47 46 49 49 49 52 56 59 62 64 65 68 69 69 70 70 69 70 67 67 68 67 65 67 66 62
57 57 56 53 52 49 46 47 51 47 45 41 40 43 47 47 48 45 48 51 52 54 58 63 63 66 66 68 69 70 70 70 70 71 69 70 69 67 66 64 64 61 53
60 60 59 56 54 53 50 49 54 51 47 46 46 50 47 47 47 49 53 55 61 63 66 67 69 69 71 72 71 70 70 71 68 68 66 66 64 63 65 62 60 54 52
66 63 61 59 56 55 53 54 55 56 54 50 51 52 49 48 52 54 55 59 64 65 66 69 68 67 69 69 68 70 67 65 64 63 62 61 61 60 63 61 55 51 52
71 68 65 62 59 60 58 56 57 57 59 55 52 50 49 51 54 56 59 64 69 67 70 66 66 70 69 68 67 62 60 57 55 56 56 58 59 60 60 57 53 53 54
69 72 69 66 64 62 62 60 60 61 61 60 52 46 50 54 59 63 66 69 71 67 70 71 70 70 68 63 61 57 55 53 52 52 54 55 58 59 59 56 54 57 57
68 66 70 72 69 67 65 65 63 66 64 62 53 54 54 59 64 67 71 75 78 76 71 74 72 67 62 60 55 52 48 49 50 52 55 56 57 56 55 55 54 55 55
78 74 67 63 69 69 64 58 59 44 51 59 54 56 59 63 67 71 75 77 76 74 72 74 70 65 59 53 50 49 50 51 53 54 54 55 56 55 54 56 56 56 56
78 76 75 68 65 67 67 64 62 62 62 52 59 62 62 68 73 73 73 73 70 69 73 72 66 57 52 49 48 50 51 53 53 53 53 53 54 53 54 56 58 59 58
79 76 75 75 71 67 66 65 66 65 65 65 68 70 69 72 70 71 73 71 69 72 73 66 55 49 47 48 50 51 52 51 50 51 51 52 52 52 54 56 61 62 63
82 76 76 75 74 72 69 69 71 69 67 67 71 73 71 69 74 74 71 71 72 73 64 58 50 46 47 49 49 47 45 47 47 48 48 50 52 54 55 57 63 67 69
79 75 77 76 75 74 73 72 71 70 70 70 71 70 70 71 75 74 71 70 70 65 59 50 44 45 46 48 46 45 44 45 45 46 47 48 50 54 57 59 61 67 71
73 76 76 75 75 73 72 71 71 70 71 69 69 70 70 71 76 73 69 65 65 59 51 46 42 41 43 44 44 44 45 46 46 47 48 48 48 51 55 59 64 67 70
67 71 74 73 74 73 71 70 70 71 70 72 72 71 71 72 67 64 64 62 58 49 42 42 44 46 47 48 48 45 45 47 48 49 50 51 52 52 53 57 60 65 71
59 63 70 73 71 68 67 66 69 66 66 67 68 69 70 68 68 59 59 54 46 42 42 44 45 46 50 53 53 53 54 55 56 56 57 57 56 57 58 60 61 62 65
56 57 56 63 69 72 70 69 68 69 67 67 69 67 66 61 56 56 52 43 42 43 43 44 46 48 50 52 53 53 55 56 57 58 60 62 62 64 65 65 66 68 70
54 56 57 59 57 59 68 70 69 67 68 68 66 59 55 53 52 50 44 43 45 45 44 45 45 46 49 51 52 53 54 57 58 60 62 64 65 68 70 72 73 75 77
54 52 51 51 50 52 55 58 57 56 56 54 51 51 49 47 47 47 43 43 40 39 40 41 42 44 46 50 52 54 55 58 61 63 66 68 69 72 74 75 77 80 83
53 52 50 48 47 41 41 43 44 46 48 47 47 46 44 45 42 40 39 38 39 41 43 45 46 47 49 51 54 56 60 61 63 66 70 73 74 77 79 80 82 85 87
53 52 49 48 46 40 39 40 42 43 43 42 43 40 41 40 40 41 41 43 44 45 47 49 52 53 54 55 58 61 65 69 72 78 79 81 81 82 83 85 87 89 91
53 51 51 48 43 38 38 39 39 39 38 38 37 37 37 39 40 42 43 46 49 50 52 54 58 61 63 66 68 69 72 73 75 76 85 88 86 86 88 91 93 95 98
53 50 50 46 41 38 38 38 37 38 36 34 35 37 39 41 43 45 48 50 51 53 55 58 61 65 69 72 74 77 81 82 84 83 80 84 88 89 90 92 94 97 99
55 52 50 45 41 40 40 38 39 38 37 38 39 40 42 44 46 48 52 54 56 57 60 64 67 71 75 78 81 84 88 92 95 95 91 88 83 83 88 93 96 100 104
Wind_Direction
255 252 252 256 264 274 264 269 272 274 279 282 275 271 271 274 275 275 279 282 283 284 285 285 285 288 286 286 284 283 282 281 281 281 282 281 281 281 285 284 283 284 282
254 254 255 256 260 264 266 264 267 273 283 284 283 278 273 274 276 280 283 286 289 289 289 288 287 286 286 283 281 281 281 281 279 279 279 279 279 279 280 281 281 281 279
252 256 258 260 261 264 267 263 267 274 280 283 282 278 282 282 284 286 288 286 286 286 288 289 289 284 282 280 278 279 279 279 279 278 278 277 278 277 278 278 279 278 280
255 256 257 258 262 264 267 263 267 270 272 278 276 277 288 290 290 292 290 288 283 287 292 291 291 291 289 287 281 282 281 282 279 280 279 277 276 276 275 275 277 278 277
250 256 259 261 263 263 263 265 265 270 280 278 272 277 286 287 289 289 289 289 290 291 294 295 294 291 291 287 282 285 283 284 279 279 278 276 275 275 273 274 276 276 270
246 250 254 258 261 262 263 262 265 270 276 275 271 278 281 284 286 288 289 290 292 290 297 297 298 296 290 289 287 288 285 282 280 276 276 274 273 272 274 274 274 270 264
244 247 251 255 257 259 261 263 264 268 271 271 271 274 276 281 287 292 291 296 297 297 298 299 299 299 294 292 291 289 285 282 278 274 273 272 272 273 275 274 269 260 261
245 247 249 253 254 257 261 263 265 266 270 272 276 277 277 281 285 289 297 299 301 298 298 299 298 300 297 292 291 289 286 281 278 274 273 273 273 274 272 271 263 253 256
249 250 250 251 253 256 258 260 261 264 268 274 276 280 282 281 283 289 296 300 304 298 300 302 301 302 296 292 292 286 282 279 279 277 276 275 275 276 273 267 259 254 254
246 250 253 251 252 254 259 262 264 265 266 272 270 278 283 285 289 293 297 298 301 302 300 304 302 300 295 292 289 284 282 283 282 280 279 278 277 276 269 264 255 255 257
247 249 252 255 257 259 266 271 275 278 277 273 272 280 283 287 290 295 297 300 299 299 302 302 300 297 293 289 286 287 287 286 285 283 281 279 278 274 268 262 253 256 261
249 250 251 254 258 259 259 264 266 274 275 275 279 282 287 289 293 294 297 298 301 302 303 301 299 295 290 285 286 289 290 289 287 285 284 281 279 274 269 261 253 257 261
250 252 253 252 254 257 258 262 267 269 271 273 278 282 287 290 294 296 296 296 300 302 301 301 299 292 288 288 290 293 292 291 289 287 285 284 281 276 270 263 256 256 258
247 250 251 250 253 255 258 262 265 269 270 273 276 281 286 291 296 295 295 297 300 298 300 300 295 293 292 293 293 293 293 294 290 290 290 287 284 278 271 265 260 258 258
251 251 253 252 254 256 258 260 263 266 270 273 276 281 286 291 293 294 296 298 296 296 298 298 295 295 294 294 294 294 293 292 291 291 290 289 285 282 276 270 266 261 259
250 254 255 255 255 256 258 261 264 266 270 275 280 282 284 290 291 295 295 292 294 296 297 295 295 301 298 298 299 298 294 292 291 290 290 290 288 284 281 277 272 267 265
246 249 254 258 260 258 257 259 266 268 272 276 279 280 285 288 291 292 291 293 294 296 299 299 300 298 298 299 299 298 297 296 295 294 291 288 285 283 282 279 278 275 273
249 250 249 251 256 257 259 263 267 268 272 277 280 282 284 287 291 286 288 294 298 298 300 299 301 300 300 300 299 298 297 295 293 293 291 290 289 287 283 280 278 276 275
249 251 252 252 253 254 258 260 263 268 272 276 280 282 283 285 283 284 292 296 298 297 295 294 295 296 296 295 295 296 295 294 293 292 291 289 288 286 284 283 281 279 276
250 251 254 257 258 258 256 257 261 266 269 274 278 277 278 279 280 288 290 293 294 292 293 293 295 296 297 297 297 296 295 295 294 293 291 290 289 287 285 283 282 281 278
249 253 256 258 258 256 256 257 262 264 269 272 271 273 273 276 281 288 289 289 290 288 289 293 295 295 296 297 298 297 297 298 297 295 293 289 287 285 283 281 280 279 277
246 251 255 258 255 250 252 256 260 263 264 266 267 268 272 278 284 284 285 288 286 288 291 294 294 294 295 297 299 300 302 299 295 294 292 289 286 284 282 281 279 278 277
245 249 253 256 252 248 251 257 259 261 261 262 264 269 273 278 279 282 282 281 286 289 290 293 293 294 295 295 297 300 302 302 302 303 298 293 290 287 285 284 282 280 278
242 247 250 254 252 249 253 258 259 261 261 263 266 270 273 275 279 280 282 286 287 287 290 293 294 295 296 296 297 298 298 298 296 298 298 295 292 289 287 286 285 284 283
240 244 247 249 248 249 254 257 260 261 258 261 264 267 270 275 277 279 283 285 287 290 292 294 295 296 297 298 300 299 298 297 294 289 289 289 290 288 286 285 285 284 282
236 240 243 245 243 247 252 253 255 256 260 260 264 268 273 276 278 281 284 286 288 290 293 296 297 298 300 300 300 300 300 299 298 296 293 289 285 285 288 289 288 287 285
Height
10881 10882 10884 10885 10886 10887 10888 10888 10888 10887 10887 10888 10888 10887 10886 10885 10884 10883 10883 10881 10879 10877 10875 10872 10870 10868 10865 10862 10860 10858 10856 10854 10851 10848 10846 10845 10844 10842 10840 10838 10835 10833 10832
10875 10874 10876 10878 10881 10882 10882 10882 10882 10882 10882 10882 10881 10881 10880 10878 10877 10876 10876 10874 10872 10870 10867 10864 10861 10859 10855 10853 10850 10848 10846 10844 10841 10839 10836 10834 10834 10832 10829 10826 10824 10822 10820
10867 10869 10870 10872 10874 10875 10876 10876 10876 10876 10875 10875 10875 10874 10873 10872 10871 10871 10869 10867 10864 10861 10859 10855 10852 10848 10845 10841 10839 10836 10835 10832 10829 10827 10825 10823 10821 10820 10818 10815 10813 10811 10811
10858 10859 10863 10867 10868 10869 10869 10869 10869 10869 10868 10868 10868 10867 10865 10864 10863 10862 10860 10858 10855 10853 10850 10847 10843 10840 10835 10832 10828 10825 10823 10821 10817 10814 10812 10810 10809 10807 10806 10804 10802 10801 10801
10851 10853 10856 10859 10860 10861 10862 10862 10863 10863 10862 10861 10861 10860 10858 10857 10855 10854 10852 10849 10847 10843 10840 10837 10833 10828 10824 10820 10815 10812 10809 10806 10803 10801 10799 10797 10797 10795 10793 10792 10791 10790 10791
10844 10844 10847 10851 10853 10853 10853 10854 10854 10855 10855 10855 10855 10853 10851 10849 10848 10847 10844 10841 10837 10834 10829 10825 10821 10817 10811 10806 10802 10798 10794 10791 10790 10787 10785 10785 10784 10783 10782 10782 10781 10781 10782
10833 10836 10840 10842 10845 10846 10845 10846 10847 10848 10848 10848 10846 10845 10843 10841 10839 10837 10835 10831 10827 10823 10818 10813 10808 10803 10797 10792 10788 10783 10779 10776 10774 10773 10773 10772 10772 10772 10770 10770 10771 10771 10772
10824 10827 10831 10834 10837 10839 10838 10838 10839 10839 10839 10839 10837 10836 10835 10833 10829 10827 10825 10822 10817 10812 10807 10802 10796 10790 10784 10778 10773 10769 10766 10764 10763 10762 10761 10761 10760 10759 10758 10757 10758 10761 10762
10815 10818 10822 10825 10827 10829 10829 10830 10830 10831 10830 10831 10829 10828 10826 10824 10821 10817 10814 10810 10807 10801 10796 10790 10785 10778 10772 10766 10761 10757 10755 10754 10753 10753 10752 10751 10749 10747 10747 10747 10748 10749 10751
10803 10805 10810 10814 10817 10819 10821 10821 10820 10820 10821 10821 10819 10819 10817 10814 10811 10808 10804 10800 10796 10790 10785 10779 10772 10765 10760 10755 10751 10748 10746 10745 10744 10743 10742 10740 10739 10736 10735 10735 10736 10738 10741
10790 10793 10800 10805 10809 10812 10812 10810 10810 10810 10810 10809 10810 10809 10807 10805 10801 10798 10794 10788 10782 10779 10773 10768 10761 10755 10749 10745 10742 10739 10737 10736 10734 10732 10731 10729 10727 10724 10724 10724 10726 10728 10730
10779 10784 10790 10795 10798 10800 10802 10801 10802 10802 10802 10801 10800 10799 10798 10795 10791 10788 10782 10777 10772 10768 10762 10756 10750 10744 10740 10737 10734 10731 10728 10725 10723 10721 10719 10718 10716 10715 10714 10714 10717 10718 10719
10769 10774 10778 10781 10786 10789 10792 10792 10792 10791 10793 10793 10790 10788 10787 10785 10779 10776 10771 10766 10762 10757 10751 10745 10739 10734 10731 10729 10726 10722 10719 10716 10713 10710 10708 10707 10706 10706 10705 10704 10705 10706 10706
10756 10761 10763 10769 10774 10778 10781 10782 10781 10781 10783 10783 10780 10779 10777 10773 10768 10765 10760 10755 10752 10746 10740 10735 10731 10727 10723 10720 10716 10713 10710 10707 10703 10700 10699 10697 10696 10695 10694 10693 10693 10695 10694
10744 10750 10752 10758 10763 10767 10769 10770 10770 10772 10772 10772 10770 10768 10766 10762 10757 10754 10749 10745 10740 10735 10731 10727 10724 10719 10715 10711 10707 10704 10702 10698 10695 10692 10690 10688 10685 10683 10682 10681 10680 10680 10680
10735 10737 10739 10743 10750 10754 10757 10759 10760 10762 10761 10761 10759 10757 10755 10752 10747 10743 10738 10735 10729 10725 10722 10719 10715 10711 10707 10704 10701 10697 10694 10690 10686 10683 10681 10678 10675 10672 10670 10668 10667 10665 10664
10723 10727 10728 10733 10736 10741 10746 10748 10750 10751 10751 10750 10748 10746 10745 10740 10737 10733 10729 10724 10719 10715 10713 10710 10707 10703 10699 10695 10692 10690 10686 10682 10678 10675 10672 10668 10664 10662 10658 10656 10653 10651 10649
10711 10716 10721 10721 10725 10728 10732 10737 10739 10740 10740 10739 10736 10734 10732 10730 10727 10722 10719 10713 10709 10707 10704 10702 10699 10694 10690 10686 10684 10682 10676 10672 10669 10666 10662 10657 10654 10650 10646 10643 10639 10636 10634
10700 10704 10708 10711 10714 10717 10722 10726 10727 10729 10729 10728 10726 10723 10721 10720 10717 10713 10709 10705 10702 10699 10696 10694 10691 10685 10681 10677 10673 10671 10666 10661 10657 10653 10649 10645 10641 10635 10631 10628 10623 10621 10618
10689 10693 10698 10701 10705 10708 10711 10713 10716 10717 10716 10716 10714 10711 10711 10709 10708 10704 10700 10697 10693 10690 10688 10685 10682 10677 10671 10666 10663 10660 10657 10650 10645 10641 10637 10631 10627 10621 10615 10610 10605 10602 10599
10681 10683 10687 10691 10695 10697 10698 10701 10704 10703 10704 10703 10702 10701 10700 10699 10697 10695 10692 10689 10686 10683 10680 10677 10673 10670 10664 10657 10652 10649 10646 10639 10633 10627 10621 10615 10611 10604 10598 10594 10588 10582 10577
10672 10673 10678 10682 10686 10687 10688 10690 10692 10693 10693 10692 10691 10691 10690 10689 10688 10686 10684 10682 10679 10675 10671 10667 10663 10660 10656 10650 10643 10636 10629 10626 10622 10615 10607 10598 10593 10585 10578 10574 10568 10562 10556
10664 10666 10669 10673 10677 10678 10680 10682 10683 10683 10683 10682 10682 10681 10681 10679 10679 10677 10676 10673 10670 10666 10661 10657 10652 10648 10644 10641 10634 10627 10621 10611 10604 10589 10581 10573 10569 10562 10556 10550 10542 10536 10531
10655 10658 10661 10664 10667 10669 10671 10672 10673 10673 10673 10673 10673 10672 10671 10671 10670 10669 10667 10663 10659 10655 10651 10646 10641 10634 10629 10624 10619 10613 10608 10602 10596 10591 10564 10547 10542 10536 10528 10519 10512 10504 10496
10646 10650 10653 10656 10658 10660 10662 10663 10664 10665 10664 10663 10664 10663 10663 10662 10661 10659 10656 10652 10648 10644 10638 10633 10628 10621 10614 10607 10602 10594 10585 10578 10573 10572 10570 10546 10525 10512 10504 10496 10487 10476 10467
10636 10640 10644 10648 10650 10652 10654 10655 10656 10655 10655 10655 10654 10655 10654 10652 10651 10648 10644 10640 10635 10630 10624 10619 10612 10605 10598 10591 10582 10573 10564 10554 10543 10535 10534 10528 10522 10504 10486 10470 10458 10447 10435